{"data":{"norad_id":59315,"epoch":"2026-09-21T13:29:08.585952Z","epoch_age_seconds":70550,"freshness":"FRESH","line1":"1 59315U 24056V   26264.56190493 -.00000261  00000+0  40772-7 0  9993","line2":"2 59315  43.0037 204.2504 0001340 263.5573  96.5126 15.27573367141111","mean_motion":15.27573367,"eccentricity":0.000134,"inclination_deg":43.0037,"raan_deg":204.2504,"arg_perigee_deg":263.5573,"mean_anomaly_deg":96.5126,"bstar":4.0772e-8,"rev_number":14111,"period_min":94.267158036934,"perigee_km":482.1495561014,"apogee_km":483.98835929806,"semimajor_km":6861.2059576997,"source":"CELESTRAK","updated_at":"2026-09-22T09:00:48.896878Z"}}